TimeEST,TemperatureF,Dew PointF,Humidity,Sea Level PressureIn,VisibilityMPH,Wind Direction,Wind SpeedMPH,Gust SpeedMPH,PrecipitationIn,Events,Conditions,WindDirDegrees,DateUTC
12:56 AM,33.8,21.2,60,30.51,10.0,NE,10.4,-,N/A,,Overcast,50,2012-12-01 05:56:00
1:56 AM,34.0,23.0,64,30.52,10.0,NE,13.8,-,N/A,,Overcast,40,2012-12-01 06:56:00
2:56 AM,34.0,21.9,61,30.52,10.0,NNE,11.5,-,N/A,,Overcast,30,2012-12-01 07:56:00
3:56 AM,34.0,23.0,64,30.51,10.0,NE,12.7,-,N/A,,Overcast,50,2012-12-01 08:56:00
4:56 AM,34.0,24.1,67,30.51,9.0,NE,11.5,-,0.00,Rain,Light Rain,40,2012-12-01 09:56:00
5:44 AM,33.8,24.8,70,30.52,10.0,NE,11.5,-,0.00,,Overcast,50,2012-12-01 10:44:00
5:56 AM,34.0,24.1,67,30.52,10.0,NE,9.2,-,0.00,,Overcast,50,2012-12-01 10:56:00
6:56 AM,34.0,27.0,75,30.53,10.0,NE,15.0,-,N/A,,Overcast,40,2012-12-01 11:56:00
7:56 AM,34.0,28.0,79,30.55,10.0,NE,15.0,21.9,N/A,,Overcast,40,2012-12-01 12:56:00
8:56 AM,35.6,26.6,70,30.57,10.0,NE,12.7,-,N/A,,Overcast,40,2012-12-01 13:56:00
9:44 AM,35.6,28.4,75,30.57,10.0,NE,10.4,-,N/A,,Overcast,40,2012-12-01 14:44:00
9:56 AM,36.0,28.0,73,30.57,10.0,NE,10.4,-,N/A,,Overcast,40,2012-12-01 14:56:00
10:56 AM,37.0,30.0,76,30.55,10.0,NE,10.4,-,N/A,,Overcast,40,2012-12-01 15:56:00
11:56 AM,37.9,32.0,79,30.52,9.0,NE,12.7,-,N/A,,Overcast,40,2012-12-01 16:56:00
12:56 PM,37.9,34.0,86,30.51,7.0,NE,11.5,-,N/A,,Overcast,40,2012-12-01 17:56:00
1:56 PM,39.0,34.0,82,30.50,7.0,NE,10.4,-,N/A,,Overcast,40,2012-12-01 18:56:00
2:56 PM,39.0,35.1,86,30.49,7.0,NE,11.5,-,N/A,,Overcast,40,2012-12-01 19:56:00
3:56 PM,39.0,35.1,86,30.50,7.0,NE,8.1,-,N/A,,Overcast,40,2012-12-01 20:56:00
4:41 PM,39.2,33.8,81,30.50,8.0,NNE,10.4,-,N/A,,Overcast,30,2012-12-01 21:41:00
4:56 PM,39.0,34.0,82,30.50,8.0,NNE,12.7,-,N/A,,Overcast,30,2012-12-01 21:56:00
5:56 PM,39.0,34.0,82,30.51,7.0,NE,12.7,-,N/A,,Overcast,50,2012-12-01 22:56:00
6:56 PM,39.9,36.0,86,30.50,8.0,ENE,11.5,-,N/A,,Overcast,60,2012-12-01 23:56:00
7:56 PM,34.0,24.1,67,30.49,8.0,NE,8.1,-,N/A,,Overcast,50,2012-12-02 00:56:00
8:32 PM,41.0,37.4,87,30.48,8.0,ENE,11.5,-,N/A,,Overcast,60,2012-12-02 01:32:00
8:56 PM,42.1,37.9,85,30.47,8.0,ENE,9.2,-,N/A,,Overcast,60,2012-12-02 01:56:00
9:30 PM,42.8,37.4,81,30.47,7.0,NNE,9.2,-,N/A,,Overcast,30,2012-12-02 02:30:00
9:42 PM,42.8,37.4,81,30.47,7.0,NE,9.2,-,N/A,,Overcast,40,2012-12-02 02:42:00
9:56 PM,42.1,37.9,85,30.47,7.0,NE,10.4,-,N/A,,Overcast,40,2012-12-02 02:56:00
10:07 PM,42.8,39.2,87,30.47,7.0,NE,10.4,-,N/A,,Overcast,40,2012-12-02 03:07:00
10:56 PM,43.0,39.0,86,30.45,7.0,NE,9.2,-,N/A,,Overcast,50,2012-12-02 03:56:00
11:32 PM,44.6,39.2,81,30.45,7.0,NE,8.1,-,N/A,,Overcast,40,2012-12-02 04:32:00
11:56 PM,45.0,12.9,27,30.44,7.0,ENE,9.2,-,N/A,,Overcast,70,2012-12-02 04:56:00